User: anonymous   Login
Location: Unspecified
(0.0000°N, 0.0000°E)
Time: 09:04:31
(UTC+00:00)
Language:

FALCON 9 R/B - Orbit

View from above orbital plane
View from above orbital plane
View from above satellite
View from above satellite

Ground track
Ground track

The orbit data is extracted from the following two-line orbital elements,

1 41590U 16038C   20093.03376980 -.00000073 +00000-0 -44007-3 0  9997
2 41590 025.1839 054.6075 8177202 247.1148 014.8769 01.18359255016371
Epoch (UTC): 02 April 2020 00:48:37
Eccentricity: 0.8177202
inclination: 25.1839°
perigee height: 503 km
apogee height: 62243 km
right ascension of ascending node: 54.6075°
argument of perigee: 247.1148°
revolutions per day: 1.18359255
mean anomaly at epoch: 14.8769°
orbit number at epoch: 1637

The dashed part of the orbit path shows where the satellite is in the earth's shadow,  

DLR